Location: Aytr�
(46.1357°N, 1.1145°W)
Time: 14:58:02
(UTC+00:00)

DMSP B5D1-3 - Pass Details

Date: 03 March 2021
Orbit: 767 x 780 km, 98.5° (Epoch: 19 April)

Event Time Altitude Azimuth Distance (km) Brightness Sun altitude
Rises 18:47:21 0° 16° (NNE) 3,273 7.6 -10.1°
Reaches altitude 10° 18:49:42 10° 19° (NNE) 2,342 6.8 -10.5°
Maximum altitude 18:54:50 66° 102° (ESE) 850 4.5 -11.4°
Drops below altitude 10° 18:59:57 10° 185° (S) 2,328 7.0 -12.2°
Sets 19:02:16 0° 188° (S) 3,251 7.8 -12.7°
